Погода в Тартусе

Сирия     34°52′37″N   35°53′46″E
темп.,
°C
ветер,
м/с
пор.,
м/с
влажн.,
%
обл.,
%
осадки,
мм/ч
давл.,
гПа
погр.,
м
26 сентября, вс
вс2600:00+19всв11630 0.0 101711
03:00+19всв22540 0.0 101613
06:00+19всв33550 0.0 101629
09:00+25всв46390 0.0 1016472
12:00+30зюз02240 0.0 10161509
15:00+30сз43280 0.0 1014807
18:00+25ссз33403 0.0 101371
21:00+23в224210 0.0 101311
27 сентября, пн
пн2700:00+22всв2231100 0.0 101211
03:00+22св223193 0.0 101111
06:00+21св11354 0.0 101111
09:00+26юз11291 0.0 1011411
12:00+29зсз55350 0.0 1010914
15:00+27зсз66420 0.0 1010923
18:00+24зюз45550 0.0 1010338
21:00+20ю11700 0.0 101116
28 сентября, вт
вт2800:00+20ююз11760 0.0 101118
03:00+20юз248111 0.0 101162
06:00+19юз228431 0.0 101140
09:00+24юз456339 0.0 10111088
12:00+26зюз66540 0.0 10111265
15:00+26зюз66570 0.0 10101193
18:00+23зюз457320 0.0 1011724
21:00+21юз238545 0.1 1012115
29 сентября, ср
ср2900:00+21зюз248068 0.0 1012435
03:00+21юз227952 0.1 1011151
06:00+22юз227664 0.0 1012216
09:00+24юз226529 0.0 1012916
12:00+27зюз54540 0.0 10121164
15:00+26з54570 0.0 10111004
18:00+23зюз33723 0.0 1011381
21:00+20в11891 0.0 101212
30 сентября, чт
чт3000:00+19всв11910 0.0 101211
03:00+19всв11910 0.0 101212
06:00+19в11890 0.0 101211
09:00+24сз22660 0.0 1012491
12:00+28зсз53490 0.0 1012960
15:00+27зсз54510 0.0 1011799
18:00+23зсз23690 0.0 101188
21:00+20св11840 0.0 101211